EW0482 Weather Reports


Display with metric or nautical units.
time (UTC)temp
F
wind
direction
speed
MPH
gust
MPH
rain 1hr
in
rain 24hr
in
rain mn
in
humidity
%
barometer
mb
20260510154523 63 109 0.0 0.0 0.00 0.00 0.00 22 1002.4
20260510153018 62 108 0.0 0.0 0.00 0.00 0.00 16 1002.4
20260510151514 62 109 0.0 0.0 0.00 0.00 0.00 10 1002.4
20260510150009 62 108 0.0 0.0 0.00 0.00 0.00 7 1002.4
20260510144508 61 108 0.0 1.0 0.00 0.00 0.00 4 1002.3
20260510143111 61 309 0.0 1.0 0.00 0.00 0.00 2 1002.2
20260510141557 61 312 0.0 1.0 0.00 0.00 0.00 100 1002.1
20260510140051 61 328 0.0 0.0 0.00 0.00 0.00 100 1002.0
20260510134547 61 328 0.0 0.0 0.00 0.00 0.00 100 1001.9
20260510133043 61 302 0.0 0.0 0.00 0.00 0.00 100 1001.8
20260510131538 61 302 0.0 0.0 0.00 0.00 0.00 100 1001.8
20260510130034 61 46 0.0 1.0 0.00 0.00 0.00 100 1001.7
20260510124529 61 46 0.0 3.0 0.00 0.00 0.00 100 1001.8
20260510123024 61 43 0.0 1.0 0.00 0.00 0.00 100 1001.7
20260510121521 61 43 0.0 0.0 0.00 0.00 0.00 100 1001.7
20260510120016 61 43 0.0 0.0 0.00 0.00 0.00 100 1001.7
20260510114512 61 43 0.0 0.0 0.00 0.00 0.00 100 1001.7
20260510113007 61 43 0.0 0.0 0.00 0.00 0.00 100 1001.6
20260510111504 61 43 0.0 2.0 0.00 0.00 0.00 100 1001.6
20260510110058 61 330 0.0 0.0 0.00 0.00 0.00 100 1001.6
20260510104555 61 330 0.0 1.0 0.00 0.00 0.00 100 1001.7
20260510103051 60 257 0.0 0.0 0.00 0.00 0.00 100 1001.6
20260510101547 60 258 0.0 0.0 0.00 0.00 0.00 100 1001.6
20260510100106 60 257 0.0 0.0 0.00 0.00 0.00 100 1001.7
20260510094538 60 257 0.0 0.0 0.00 0.00 0.00 100 1001.8
20260510093042 60 258 0.0 0.0 0.00 0.00 0.00 100 1001.7
20260510091531 60 257 0.0 0.0 0.00 0.00 0.00 100 1001.8
20260510090023 60 257 0.0 0.0 0.00 0.00 0.00 100 1001.9
20260510084528 60 257 0.0 0.0 0.00 0.00 0.00 100 1001.8
20260510083015 60 257 0.0 0.0 0.00 0.00 0.00 100 1001.8
20260510081521 60 257 0.0 0.0 0.00 0.00 0.00 100 1002.0
20260510080005 60 257 0.0 0.0 0.00 0.00 0.00 100 1002.1
20260510074501 60 257 0.0 0.0 0.00 0.00 0.00 100 1002.2
20260510073057 60 257 0.0 0.0 0.00 0.00 0.00 100 1002.3
20260510071557 59 257 0.0 0.0 0.00 0.00 0.00 100 1002.3
20260510070048 59 257 0.0 0.0 0.00 0.00 0.00 100 1002.3
20260510064647 59 257 0.0 0.0 0.00 0.00 0.00 100 1002.3
20260510063046 59 257 0.0 0.0 0.00 0.00 0.00 100 1002.3
20260510061548 59 257 0.0 0.0 0.00 0.00 0.00 100 1002.3
20260510060037 59 257 0.0 0.0 0.00 0.00 0.00 100 1002.3
20260510054533 59 257 0.0 0.0 0.00 0.00 0.00 100 1002.4
20260510053028 59 257 0.0 0.0 0.00 0.00 0.00 100 1002.4
20260510051525 59 257 0.0 1.0 0.00 0.00 0.00 100 1002.4
20260510050020 59 257 0.0 0.0 0.00 0.00 0.00 100 1002.4
20260510044516 59 257 0.0 2.0 0.00 0.00 0.00 100 1002.2
20260510043019 59 253 0.0 1.0 0.00 0.00 0.00 100 1002.3
20260510041506 59 251 0.0 2.0 0.00 0.00 0.00 2 1002.0
20260510040001 59 252 0.0 1.0 0.00 0.00 0.00 2 1001.9
20260510034610 60 257 0.0 4.0 0.00 0.00 0.00 1 1001.7
20260510033113 60 247 0.0 4.0 0.00 0.00 0.00 2 1001.6
20260510031554 60 260 0.0 3.0 0.00 0.00 0.00 13 1001.3
20260510030051 60 261 0.0 1.0 0.00 0.00 0.00 19 1001.3
20260510024555 61 257 0.0 1.0 0.00 0.00 0.00 25 1001.2
20260510023047 61 252 0.0 3.0 0.00 0.00 0.00 28 1001.0
20260510021548 61 263 0.0 5.0 0.00 0.00 0.00 31 1000.8
20260510020049 62 259 0.0 4.0 0.00 0.00 0.00 34 1000.8
20260510014546 62 252 0.0 4.0 0.00 0.00 0.00 52 1000.7
20260510013049 64 252 0.0 1.0 0.00 0.00 0.00 59 1000.7
20260510011553 64 256 0.0 5.0 0.00 0.00 0.00 61 1000.6
20260510010044 65 246 0.0 3.0 0.00 0.00 0.00 66 1000.5
20260510004548 66 173 0.0 7.0 0.00 0.00 0.00 70 1000.6
20260510003101 66 254 0.0 8.0 0.00 0.00 0.00 70 1000.5
20260510001543 67 247 1.0 8.0 0.00 0.00 0.00 72 1000.5
20260510000046 69 193 0.0 6.0 0.00 0.00 0.00 73 1000.6
20260509234558 70 256 1.0 8.0 0.00 0.00 0.00 72 1000.6
20260509233043 70 226 0.0 5.0 0.00 0.00 0.00 72 1000.7
20260509231551 71 234 0.0 5.0 0.00 0.00 0.00 72 1000.6
20260509230038 70 239 0.0 6.0 0.00 0.00 0.00 72 1000.6
20260509224539 70 249 1.0 9.0 0.00 0.00 0.00 72 1000.7
20260509223036 71 202 0.0 4.0 0.00 0.00 0.00 72 1000.9
20260509221534 70 211 0.0 7.0 0.00 0.00 0.00 72 1001.2
20260509220033 71 259 0.0 6.0 0.00 0.00 0.00 71 1001.5
20260509214531 71 252 0.0 5.0 0.00 0.00 0.00 71 1001.4
20260509213029 71 246 0.0 4.0 0.00 0.00 0.00 71 1001.7
20260509211528 71 244 0.0 4.0 0.00 0.00 0.00 71 1001.7
20260509210026 71 252 0.0 8.0 0.00 0.00 0.00 71 1001.9
20260509204524 71 200 0.0 8.0 0.00 0.00 0.00 71 1002.0
20260509203023 72 215 0.0 5.0 0.00 0.00 0.00 71 1002.0
20260509201523 72 211 0.0 3.0 0.00 0.00 0.00 71 1002.1
20260509200023 72 192 0.0 1.0 0.00 0.00 0.00 70 1002.2
20260509194528 72 257 1.0 6.0 0.00 0.00 0.00 71 1002.2
20260509193021 72 197 0.0 5.0 0.00 0.00 0.00 71 1002.4
20260509191520 72 205 0.0 3.0 0.00 0.00 0.00 71 1002.5
20260509190021 71 259 0.0 7.0 0.00 0.00 0.00 72 1002.7
20260509184518 72 252 0.0 3.0 0.00 0.00 0.00 71 1002.8
20260509183023 71 254 1.0 5.0 0.00 0.00 0.00 72 1002.8
20260509181515 71 255 0.0 3.0 0.00 0.00 0.00 71 1002.9
20260509180012 70 248 0.0 6.0 0.00 0.00 0.00 69 1002.9
20260509174510 69 253 0.0 3.0 0.00 0.00 0.00 71 1003.0
20260509173007 68 240 0.0 1.0 0.00 0.00 0.00 66 1002.9
20260509171504 67 141 0.0 1.0 0.00 0.00 0.00 63 1002.9
20260509170100 66 142 0.0 0.0 0.00 0.00 0.00 58 1002.8
20260509164602 65 142 0.0 0.0 0.00 0.00 0.00 50 1002.8
20260509163059 64 142 0.0 0.0 0.00 0.00 0.00 46 1002.8
20260509161552 64 141 0.0 0.0 0.00 0.00 0.00 40 1002.8
20260509160049 63 142 0.0 0.0 0.00 0.00 0.00 35 1002.9